Prescott, AZ

4:26 PM MST on September 22, 2019 (GMT -0700)
Love

Weather History for KPRC - June, 2019

Change the Weather History Date:

Saturday, June 1, 2019

  Actual Average Record
Temperature  
Mean Temperature 62 °F 66 °F  
Max Temperature 79 °F 82 °F 96 °F (2012)
Min Temperature 46 °F 51 °F 40 °F (1988)
Degree Days  
Heating Degree Days 2    
Month to date heating degree days 2  
Since 1 July heating degree days 4330  
Cooling Degree Days 0    
Month to date cooling degree days 0  
Year to date cooling degree days 1  
Growing Degree Days 12 (Base 50)    
Moisture  
Dew Point 31 °F    
Average Humidity 29    
Maximum Humidity 58    
Minimum Humidity 13    
Precipitation  
Precipitation 0.00 in 0.01 in 0.36 in (1972)
Month to date precipitation 0.00 0.01  
Year to date precipitation 6.68 4.55  
Sea Level Pressure  
Sea Level Pressure 29.79 in    
Wind  
Wind Speed 8 mph ()    
Max Wind Speed 24 mph    
Max Gust Speed 34 mph    
Visibility 9.2 miles    
Events      
T = Trace of Precipitation, MM = Missing Value Source: Averaged Metar Reports

Daily Weather History Graph

Daily Weather History Graph

Search for Another Location

Airport or City:

Astronomy

Jun. 01, 2019 Rise Set
Actual Time 5:17 AM MST 7:37 PM MST
Civil Twilight 4:48 AM MST 8:06 PM MST
Nautical Twilight 4:13 AM MST 8:42 PM MST
Astronomical Twilight 3:34 AM MST 9:21 PM MST
Moon 4:17 AM MST (6/1) 6:00 PM MST (6/1)
Length of Visible Light 15h 17m
Length of Day
14h 19m
Waning Crescent, 3% of the Moon is Illuminated
Jun 1
Waning Crescent
Jun 3
New
Jun 9
First Quarter
Jun 17
Full
Jun 25
Last Quarter

Hourly Weather History & Observations

Time (MST) Temp. Dew Point Humidity Pressure Visibility Wind Dir Wind Speed Gust Speed Precip Events Conditions
12:00 AM 57.9 °F 30.0 °F 35% 30.01 in 3.0 mi SSW 6.9 mph - N/A   Haze
12:53 AM 59.0 °F 30.9 °F 35% 29.78 in 5.0 mi SSW 8.1 mph - N/A   Haze
1:53 AM 55.9 °F 32.0 °F 40% 29.76 in 10.0 mi South 6.9 mph - N/A   Clear
2:53 AM 55.0 °F 30.9 °F 40% 29.77 in 10.0 mi South 6.9 mph - N/A   Clear
3:53 AM 52.0 °F 30.0 °F 43% 29.78 in 7.0 mi South 5.8 mph - N/A   Clear
4:53 AM 46.9 °F 32.0 °F 56% 29.81 in 6.0 mi South 5.8 mph - N/A   Haze
5:53 AM 50.0 °F 30.9 °F 48% 29.81 in 10.0 mi Calm Calm - N/A   Clear
6:53 AM 59.0 °F 33.1 °F 38% 29.80 in 10.0 mi Calm Calm - N/A   Clear
7:53 AM 68.0 °F 28.9 °F 23% 29.79 in 10.0 mi ESE 10.4 mph - N/A   Clear
8:53 AM 72.0 °F 33.1 °F 24% 29.81 in 10.0 mi SSE 13.8 mph 21.9 mph N/A   Clear
9:53 AM 73.0 °F 33.1 °F 23% 29.81 in 10.0 mi South 20.7 mph 27.6 mph N/A   Clear
10:53 AM 75.0 °F 32.0 °F 21% 29.81 in 10.0 mi SE 20.7 mph 28.8 mph N/A   Clear
11:53 AM 75.9 °F 33.1 °F 21% 29.80 in 10.0 mi SE 18.4 mph 28.8 mph N/A   Clear
12:53 PM 75.9 °F 33.1 °F 21% 29.78 in 10.0 mi South 12.7 mph 20.7 mph N/A   Partly Cloudy
1:51 PM 78.8 °F 26.6 °F 15% 29.98 in 10.0 mi South 13.8 mph 20.7 mph N/A   Clear
1:53 PM 78.1 °F 26.1 °F 15% 29.76 in 10.0 mi South 18.4 mph 24.2 mph N/A   Clear
2:53 PM 77.0 °F 28.0 °F 17% 29.75 in 10.0 mi SW 11.5 mph 24.2 mph N/A   Partly Cloudy
3:53 PM 78.1 °F 25.0 °F 14% 29.75 in 10.0 mi SW 15.0 mph 23.0 mph N/A   Clear
4:53 PM 77.0 °F 25.0 °F 15% 29.75 in 10.0 mi WSW 12.7 mph - N/A   Partly Cloudy
5:53 PM 75.0 °F 28.0 °F 18% 29.74 in 10.0 mi SW 17.3 mph 24.2 mph N/A   Clear
6:53 PM 72.0 °F 28.0 °F 20% 29.73 in 10.0 mi SSW 10.4 mph - N/A   Clear
7:53 PM 68.0 °F 32.0 °F 26% 29.73 in 10.0 mi SW 4.6 mph - N/A   Clear
8:53 PM 63.0 °F 34.0 °F 34% 29.74 in 10.0 mi SSW 4.6 mph - N/A   Clear
9:53 PM 62.1 °F 35.1 °F 37% 29.76 in 8.0 mi SSW 9.2 mph - N/A   Clear
10:53 PM 60.1 °F 35.1 °F 39% 29.77 in 9.0 mi SW 6.9 mph - N/A   Clear
11:53 PM 59.0 °F 35.1 °F 41% 29.76 in 10.0 mi SSW 9.2 mph - N/A   Scattered Clouds